Location: Corcelles
(46.1547°N, 4.7234°E)
Time: 07:41:08
(UTC+00:00)

Cosmos 1908 Rocket - Pass Details

Date: 14 July 2020
Orbit: 605 x 633 km, 82.5° (Epoch: 14 August)

Event Time Altitude Azimuth Distance (km) Brightness Sun altitude
Exits shadow 03:05:55 - 200° (SSW) 2,145 5.8 -8.7°
Reaches altitude 10° 03:06:15 10° 201° (SSW) 2,012 5.6 -8.6°
Maximum altitude 03:10:40 60° 281° (WNW) 728 3.8 -8.1°
Drops below altitude 10° 03:15:07 10° 2° (N) 2,023 6.9 -7.5°
Sets 03:17:23 0° 6° (N) 2,932 7.9 -7.2°
